This is the latest recevied weather packets stored in our database for station/object E24YPM-1. If no packets are shown the sender has not sent any weather packets the latest 10 day(s).
| Time | Temp. | Humidity | Pressure | Rain* | Wind** | Luminosity | Snow |
|---|---|---|---|---|---|---|---|
| 1777543059 | 32.78° C | 36% | 1001 hPa | - | - | 0 W/m² | - |
| 1777542146 | 31.67° C | 34% | 1001 hPa | - | - | 0 W/m² | - |
| 1777541235 | 31.67° C | 35% | 1001 hPa | - | - | 0 W/m² | - |
| 1777540319 | 31.67° C | 35% | 1000 hPa | - | - | 0 W/m² | - |
| 1777539407 | 32.22° C | 36% | 1001 hPa | - | - | 0 W/m² | - |
| 1777537547 | 32.78° C | 35% | 1001 hPa | - | - | 0 W/m² | - |
| 1777536679 | 33.33° C | 35% | 1001 hPa | - | - | 0 W/m² | - |
| 1777535695 | 33.89° C | 37% | 1002 hPa | - | - | 0 W/m² | - |
| 1777534763 | 34.44° C | 40% | 1002 hPa | - | - | 0 W/m² | - |
| 1777533832 | 36.11° C | 43% | 1003 hPa | - | - | 0 W/m² | - |
| 1777532844 | 36.67° C | 43% | 1003 hPa | - | - | 0 W/m² | - |
| 1777531016 | 36.67° C | 42% | 1004 hPa | - | - | 0 W/m² | - |
| 1777530102 | 36.67° C | 43% | 1004 hPa | - | - | 0 W/m² | - |
| 1777528499 | 36.67° C | 44% | 1005 hPa | - | - | 0 W/m² | - |
| 1777526638 | 35.56° C | 44% | 1005 hPa | - | - | 0 W/m² | - |
| 1777524782 | 36.67° C | 42% | 1005 hPa | - | - | 0 W/m² | - |
| 1777523869 | 36.11° C | 44% | 1006 hPa | - | - | 0 W/m² | - |
| 1777522954 | 35.56° C | 46% | 1006 hPa | - | - | 0 W/m² | - |
| 1777522041 | 35° C | 46% | 1006 hPa | - | - | 0 W/m² | - |
| 1777521124 | 35° C | 46% | 1006 hPa | - | - | 0 W/m² | - |
| 1777520212 | 35° C | 46% | 1006 hPa | - | - | 0 W/m² | - |
| 1777519296 | 34.44° C | 50% | 1007 hPa | - | - | 0 W/m² | - |
| 1777518374 | 34.44° C | 50% | 1007 hPa | - | - | 0 W/m² | - |
| 1777517462 | 34.44° C | 51% | 1007 hPa | - | - | 0 W/m² | - |
| 1777516549 | 33.89° C | 53% | 1007 hPa | - | - | 0 W/m² | - |
* Rain since midnight (hover to see other rain measurements)
** Current wind speed in m/s (hover to see current wind gust speed)